Location: Burland Observatory
(39.4088°N, 105.4217°W)
Time: 12:36:48
(UTC-07:00)

Vanguard 3 - Pass Details

Date: 12 December 2019
Orbit: 507 x 3263 km, 33.4° (Epoch: 22 January)

Event Time Altitude Azimuth Distance (km) Brightness Sun altitude
Rises 07:14:15 0° 234° (SW) 3,407 10.1 -0.5°
Reaches altitude 10° 07:16:24 10° 227° (SW) 2,708 9.7 -0.2°
Maximum altitude 07:22:43 46° 156° (SSE) 1,791 9.5 0.9°
Drops below altitude 10° 07:33:41 10° 89° (E) 4,650 12.1 2.7°
Sets 07:38:33 0° 85° (E) 6,108 12.5 3.5°
